www.pogodaiklimat.ru

Погода и климат >> Архив погоды >> Россия >> Сахалинская область >> Оха


ПОГОДА в Оха

  • Прогноз погоды в Оха
  • Монитор погоды в Оха
  • Климат города

АРХИВ ПОГОДЫ в Оха

Время (UTC), дата Ветер
(напр.,м/с)
 
Видим.   Явления Облачность Т
(С)
Тd
(С)
f
(%)
Тe
(С)
Тes
(С)
Комфортность P
(гПа)
Po
(гПа)
Тmin
(С)
Tmax
(С)
R
(мм)
R24
(мм)
S
(см)
03 10.12 СЗ 6-10
{12}
20 км позёмок {ливн. осадки, метель} 10/10 900 м
[Cb cap]
-6.3 -10.8 70 -14 -14 1006.0 1001.1
06 10.12 СЗ 5-8
{13}
20 км позёмок {ливн. осадки, метель} 9/9 360 м
[Cb cap]
-8.2 -11.6 76 -16 -16 1009.4 1004.5
09 10.12 СЗ 7-11
{12}
20 км позёмок {ливн. осадки, метель} 10/10 330 м
[Cb cap]
-8.4 -10.7 83 -17 -17 1010.8 1005.8 -5.7 0.3
12 10.12 СЗ 6-9
{12}
4000 м слабый ливневой снег {метель} 10/10 270 м
[Cb cap]
-8.5 -11.6 78 -17 -17 1011.9 1007.0
18 10.12 СЗ 7-12
{12}
4000 м слабый ливневой снег 9/9 240 м
[Cb cap]
-8.3 -9.6 90 -17 -17 1012.5 1007.6
21 10.12 СЗ 8-14
{16}
2000 м слабый ливневой снег {метель} 10/10 150 м
[Cb cap]
-7.7 -8.9 91 -17 -17 1012.0 1007.1 -8.8 2 63
00 11.12 СЗ 8-11
{15}
4000 м слабый ливневой снег {метель} 10/10 240 м
[Cb cap]
-6.5 -7.6 92 -16 -16 1011.6 1006.7
03 11.12 СЗ 8-11
{15}
4000 м слабый ливневой снег {метель} 10/10 240 м
[Cb cap]
-6.5 -7.6 92 -16 -16 1011.6 1006.7
06 11.12 СЗ 7-12
{13}
20 км позёмок {ливн. осадки, метель} 9/9 500 м
[Cb cap]
-5.1 -7.0 86 -13 -13 1010.1 1005.2
09 11.12 СЗ 8-13
{15}
20 км позёмок {ливн. осадки, метель} 10/10 240 м
[Cb cap]
-5.0 -6.1 92 -14 -14 1008.9 1004.1 -4.5 2
12 11.12 СЗ 8-13
{14}
20 км позёмок {ливн. осадки, метель} 10/10 210 м
[Cb cap]
-5.5 -5.9 97 -15 -15 1007.8 1003.0
18 11.12 СЗ 4-6
{11}
4000 м слабый ливневой снег {метель} 10/10 180 м
[Cb cap]
-3.8 -4.0 99 -10 -10 1006.2 1001.4
21 11.12 штиль 0
{6}
4000 м дымка {ливн. осадки} 10/10 90 м
[St]
-3.4 -3.5 99 -5 -5 1006.0 1001.2 -5.7 0.3 60
00 12.12 СВ 3-5
{5}
4000 м слабый ливневой снег 10/10 270 м
[Cb cap]
-2.2 -2.7 96 -7 -7 1005.4 1000.6
06 12.12 СВ 5-8
{8}
1000 м ливневой снег 10/10 100 м
[Cb cap]
-2.7 -2.7 100 -10 -10 1006.2 1001.4
09 12.12 СВ 6-12
{12}
1000 м ливневой снег 10/10 100 м
[Cb cap]
-2.3 -2.4 99 -10 -10 1006.7 1001.9 -1.9 5
12 12.12 СВ 6-10
{12}
20 км {ливн. осадки} 10/10 180 м
[Cb cap]
-0.9 -0.9 100 -8 -8 1007.1 1002.3
18 12.12 С 5-10
{13}
20 км 10/10 240 м
[Cb cap]
-1.1 -1.8 95 -8 -8 1009.8 1005.0
21 12.12 СВ 6-11
{14}
20 км 10/10 150 м
[Cb cap]
-1.3 -2.7 90 -8 -8 1012.3 1007.5 -2.3 0.7 65
00 13.12 С 4-9
{14}
20 км 10/10 480 м
[Cb cap]
-1.7 -4.3 82 -7 -7 1014.6 1009.7
06 13.12 С 6-11
{13}
20 км в посл. час ливневой снег 10/10 600 м
[Cb cap]
-3.2 -6.6 77 -10 -10 1017.3 1012.4
09 13.12 С 6-13
{13}
20 км 10/10 540 м
[Cb cap]
-3.8 -7.4 76 -11 -11 1018.8 1013.9 -1.3 0.3
12 13.12 СЗ 4-7
{13}
20 км в посл. час ливневой снег 10/10 420 м
[Cb cap]
-4.4 -6.4 86 -11 -11 1019.5 1014.6
18 13.12 СЗ 5-8
{10}
20 км 9/9 400 м
[Cb cap]
-6.2 -7.2 93 -14 -14 1019.7 1014.8
21 13.12 СЗ 6-10
{13}
4000 м слабый ливневой снег 10/10 300 м
[Cb cap]
-7.4 -8.6 91 -16 -16 1019.8 1014.8 -7.4 0.2 62
00 14.12 З 4-9
{10}
20 км в посл. час ливневой снег 9/9 330 м
[Cb cap]
-8.6 -10.3 87 -15 -15 1019.8 1014.8 -9.2
06 14.12 З 5-7
{9}
20 км в посл. час ливневой снег 9/9 400 м
[Cb cap]
-11.2 -13.1 86 -19 -19 1018.2 1013.2
09 14.12 З 4-6
{9}
20 км в посл. час ливневой снег 9/9 480 м
[Cb cap]
-10.7 -12.2 89 -18 -18 1017.9 1012.9 -7.4 0.3
12 14.12 З 4-7
{9}
20 км в посл. час ливневой снег 9/9 500 м
[Cb cap]
-10.5 -12.2 87 -18 -18 1017.6 1012.6
18 14.12 З 4-6
{9}
20 км в посл. час ливневой снег 9/9 450 м
[Cb cap]
-11.1 -13.0 86 -18 -18 1015.9 1010.9
21 14.12 З 5-9
{9}
20 км в посл. час ливневой снег 9/9 360 м
[Cb cap]
-10.4 -12.8 83 -18 -18 1015.1 1010.1 -12.0 0.2 62
00 15.12 З 5-8
{10}
4000 м слабый ливневой снег 10/10 420 м
[Cb cap]
-10.9 -12.5 88 -19 -19 1014.6 1009.6 -12.2
06 15.12 З 7-10
{10}
20 км {ливн. осадки} 5/5 300 м
[Cb cap]
-13.6 -15.9 83 -23 -23 1013.6 1008.5
09 15.12 З 5-7
{10}
20 км 3/3 300 м
[Cb cap]
-15.3 -17.3 85 -24 -24 1013.5 1008.4 -9.6 0.2
12 15.12 З 5-7
{9}
20 км 4/3 300 м
[Cb cap Ci fib]
-16.1 -18.8 80 -25 -25 1013.4 1008.3
18 15.12 З 4-5
{7}
20 км {ливн. осадки} 3/3 300 м
[Cb cap]
-17.9 -19.8 85 -26 -26 1012.4 1007.3
21 15.12 З 5-7
{7}
20 км 5/0
[Ac trans Ci fib]
-19.4 -21.4 84 -29 -29 1011.5 1006.4 -19.5 0.2 61
00 16.12 З 7-9
{10}
20 км в посл. час ливневой снег 9/5 360 м
[Cb cap Ci sp]
-17.0 -19.4 82 -28 -28 1010.7 1005.6
06 16.12 З 6-8
{11}
20 км {ливн. осадки} 9/5 420 м
[Cb cap Ci sp]
-17.0 -19.0 84 -27 -27 1010.4 1005.3
09 16.12 З 5-7
{9}
20 км в посл. час ливневой снег 9/5 400 м
[Cb cap Ci sp]
-17.7 -19.6 85 -27 -27 1009.7 1004.6 -15.7 0.3
12 16.12 З 6-9
{10}
4000 м слабый ливневой снег 9/5 300 м
[Cb cap Ci sp]
-17.6 -19.7 84 -28 -28 1009.6 1004.5
18 16.12 З 6-9
{11}
4000 м слабый ливневой снег 10/10 300 м
[Cb cap]
-17.9 -19.8 85 -28 -28 1007.8 1002.6
21 16.12 З 6-10
{10}
20 км в посл. час ливневой снег 8/8 300 м
[Cb cap]
-19.7 -21.9 83 -31 -31 опасность
обморожения
1007.5 1002.4 -19.7 0.9 61

 

Местоположение метеостанции Оха (Сахалинская область, Россия): широта 53.50 долгота 142.90 высота над уровнем моря 37 м.

В архиве по умолчанию представлена погода в Оха за последнюю неделю. Архивные данные за месяц целиком и за предыдущие месяцы, начиная с января 2011 года, Вы можете получить, выбрав интересующий диапазон дат из раскрывающегося списка и нажав кнопку "Ввод!".

Внимание! Время в таблицах - всемирное. Для получения местного времени необходимо прибавить поправку, которая в Оха равна 11 ч.

Смотрите также архив погоды в соседних городах и на ближайших метеорологических станциях:

Погода в Одопту (Сахалинская область, Россия) (23 км)
Погода в Москальво (Сахалинская область, Россия) (28 км)
Погода в Ныврово (Сахалинская область, Россия) (94 км)
Погода в Байдукове (Хабаровский край, Россия) (102 км)
Погода в Вал (Сахалинская область, Россия) (130 км)
Погода в Джаоре (Хабаровский край, Россия) (146 км)
Погода в Николаевск-на-Амуре (Хабаровский край, Россия) (151 км)
Погода в Погибях (Сахалинская область, Россия) (167 км)
Погода в Ногликах (Сахалинская область, Россия) (176 км)
Погода в Литке (Хабаровский край, Россия) (178 км)

Пояснения к столбцам:

Ветер - указаны скорость ветра в м/с - средняя за 10 мин, порывы в срок и между сроками (в фигурных скобках) и направление, откуда дует ветер: С - северный, СВ - северо-восточный, В - восточный, ЮВ - юго-восточный, Ю - южный, ЮЗ - юго-западный, З - западный, СЗ - северо-западный.
Видимость - горизонтальная дальность видимости в метрах или километрах. При видимости от 1 до 10 км при отсутствии осадков обычно наблюдается дымка, при ухудшении видимости до 1 км и менее - туман. В сухую погоду видимость может ухудшаться дымом, пылью или мглою.
Явления - указаны атмосферные явления, наблюдавшиеся в срок или в последний час перед сроком; фигурными скобками обозначены явления, наблюдавшиеся между сроками (за 1-3 часа до срока); квадратными скобками обозначены град или гололедные отложения с указанием их диаметра в мм.
Облачность - указаны через наклонную черту общая и нижняя облачность в баллах и высота нижней границы облаков в метрах; квадратными скобками обозначены формы облаков: Ci - перистые, Cs - перисто-слоистые, Cc - перисто-кучевые, Ac - высококучевые, As - высокослоистые, Sc - слоисто-кучевые, Ns - слоисто-дождевые, Cu - кучевые, Cb - кучево-дождевые. Подробнее классификацию облаков см. в Атласе облаков (PDF).
T - Температура воздуха - температура, измеренная на высоте 2 м над землей.
Td - Температура точки росы - температура, при понижении до которой содержащийся в воздухе водяной пар достигнет насыщения.
f - Относительная влажность воздуха - влажноcть воздуха, измеренная на высоте 2 м над землей.
Te - Эффективная температура - температура, которую ощущает одетый по сезону человек в тени. Характеристика душности погоды. При расчете учитывается влияние влажности воздуха и скорости ветра на теплоощущения человека.
Tes - Эффективная температура на солнце - температура, которую ощущает человек, с поправкой на солнечный нагрев. Характеристика знойности погоды. Зависит от высоты солнца над горизонтом, облачности и скорости ветра. Ночью, в пасмурную погоду, а также при ветре 12 м/с и более поправка равна нулю.
P - Атмосферное давление - приведенное к уровню моря атмосферное давление.
Po - Атмосферное давление - измеренное на уровне метеостанции атмосферное давление.
Tmin - Минимальная температура - минимум температуры воздуха на высоте 2 м над землей.
Tmax - Максимальная температура - максимум температуры воздуха на высоте 2 м над землей.
R - Количество осадков - Количество выпавших осадков за период времени, мм. При наведении курсора мыши на число - период времени, за который выпало указанное количество осадков.
R24 - Количество осадков - Количество выпавших осадков за 24 часа, мм.
S - Снежный покров - Высота снежного покрова, см. При наведении курсора мыши на число - состояние снежного покрова и степень покрытия местности в баллах.